Flag for Belarus Weather past 2 weeks in Minsk, Belarus

Now
45 °F

Clear.


Feels Like: 45 °F
Forecast: 42 / 65 °F
Wind: No wind

Location: Minsk

Current Time: Sep 15, 2014 at 5:14:44 AM

Latest Report: Sep 15, 2014 at 4:30 AM


Visibility: 10 mi

Pressure: 30.33 "Hg

Humidity: 87%

Dew point: 41 °F

Location of MinskLocation

Historic Weather in Minsk — Graph

°F

Minsk temperature yesterday

Maximum temperature yesterday: 68 °F (at 2:30 PM)
Minimum temperature yesterday: 46 °F (at 3:30 AM)
Average temperature yesterday: 57 °F

Past Weeks' High & Low Weather Summary

 TemperatureHumidityPressure
High77 °F (Sep 13, 4:30 PM)100% (Aug 31, 4:00 AM)30.42 "Hg (Aug 31, 4:00 AM)
Low39 °F (Sep 4, 5:00 AM)27% (Sep 12, 2:00 PM)29.95 "Hg (Aug 31, 5:00 AM)
Average58 °F80%30.16 "Hg
* Reported Aug 31 4:00 AM — Sep 15 4:00 AM, Minsk, Weather by CustomWeather, © 2014

Note: Actual official high and low records may vary slightly from our data, if they occured in-between our weather recording intervals... More about our weather records

Advertising

Minsk weather history for previous 24 hours

 ConditionsComfort  
Time TempWeatherWind HumidityBarometerVisibility
4:00 AM
Sep 15
45 °FClear.1 mph93%30.33 "Hg10 mi
3:30 AM43 °FClear.No wind93%30.33 "Hg10 mi
3:00 AM43 °FClear.No wind93%30.33 "Hg10 mi
2:30 AM45 °FClear.No wind93%30.33 "Hg10 mi
2:00 AM46 °FClear.1 mph87%30.33 "Hg10 mi
1:30 AM48 °FClear.6 mph82%30.33 "Hg10 mi
1:00 AM48 °FClear.6 mph82%30.33 "Hg10 mi
12:30 AM48 °FClear.6 mph82%30.33 "Hg10 mi
12:00 AM50 °FClear.8 mph76%30.33 "Hg10 mi
11:30 PM
Sep 14
52 °FClear.8 mph72%30.30 "Hg10 mi
11:00 PM52 °FClear.8 mph72%30.30 "Hg10 mi
10:30 PM52 °FClear.6 mph72%30.30 "Hg10 mi
10:00 PM54 °FPassing clouds.6 mph67%30.30 "HgN/A
9:30 PM54 °FClear.6 mph67%30.30 "Hg10 mi
9:00 PM55 °FPassing clouds.6 mph63%30.30 "HgN/A
8:30 PM55 °FClear.3 mph63%30.30 "Hg10 mi
8:00 PM57 °FSunny.6 mph59%30.30 "Hg10 mi
7:30 PM59 °FSunny.6 mph55%30.27 "Hg10 mi
7:00 PM61 °FSunny.8 mph48%30.27 "Hg10 mi
6:30 PM63 °FSunny.10 mph45%30.27 "Hg10 mi
6:00 PM64 °FSunny.10 mph43%30.27 "Hg10 mi
5:30 PM66 °FSunny.10 mph43%30.27 "Hg10 mi
5:00 PM66 °FSunny.10 mph37%30.27 "Hg10 mi
4:30 PM66 °FPassing clouds.10 mph43%30.27 "HgN/A
4:00 PM68 °FPassing clouds.10 mph40%30.27 "HgN/A
3:30 PM68 °FSunny.10 mph43%30.27 "Hg10 mi
3:00 PM68 °FSunny.10 mph46%30.27 "Hg10 mi
2:30 PM68 °FPassing clouds.10 mph49%30.27 "HgN/A
2:00 PM66 °FPassing clouds.8 mph56%30.30 "HgN/A
1:30 PM66 °FPassing clouds.8 mph56%30.27 "HgN/A
1:00 PM66 °FScattered clouds.8 mph60%30.30 "HgN/A
12:30 PM64 °FPartly sunny.8 mph64%30.27 "HgN/A
12:00 PM64 °FPartly sunny.8 mph68%30.27 "HgN/A
11:30 AM63 °FPartly sunny.10 mph73%30.27 "HgN/A
11:00 AM63 °FPartly sunny.8 mph77%30.27 "HgN/A
10:30 AM61 °FPartly sunny.8 mph83%30.27 "HgN/A
10:00 AM59 °FPartly sunny.8 mph82%30.27 "HgN/A
9:30 AM59 °FBroken clouds.8 mph82%30.27 "HgN/A
9:00 AM57 °FBroken clouds.6 mph94%30.27 "Hg4 mi
8:30 AM55 °FPartly sunny.6 mph94%30.27 "Hg6 mi
8:00 AM54 °FBroken clouds.3 mph100%30.27 "Hg4 mi
7:30 AM54 °FFog.3 mph94%30.27 "Hg3 mi
7:00 AM52 °FFog.No wind94%30.27 "Hg3 mi
6:30 AM50 °FFog.No wind94%30.27 "Hg3 mi
6:00 AM50 °FFog.No wind94%30.27 "Hg2 mi
5:46 AM50 °FFog.1 mph100%30.27 "Hg3 mi
5:30 AM50 °FFog.No wind100%30.27 "Hg2 mi
5:00 AM48 °FFog.No wind100%30.27 "Hg3 mi
Weather by CustomWeather, © 2014

See weather overviewHow to use our weather pages